contact:dominique.lefevre@mio.osupytheas.fr, maurice.libes@osupytheas.fr
Project:EMSO Ligure-ouest http://www.emso-fr.org/EMSO-France
Sensor Aquadopp, line 13 Serial AQD14315 
DOI : "https://doi.org/10.17882/74513; https://doi.org/10.17882/83244" 
Title:EMSO Ligure Ouest : Data ligne ALBATROSS capteur AQUADOPP - deploiement 2021
Id,Date,Profondeur,Latitude,Longitude,X_East,Y_North,Z_Up,Amplitude_X,Amplitude_Y,Amplitude_Z,Batterie,SoundSpeed,Heading,Pitch,Roll,Pressure,Temperature,Speed,Direction
, , m, degrees North, degrees East, m.s-1, m.s-1,m.s-1, 1, 1, 1, Volt, m.s-1, degree, degree, degree, dbar, degree_C, m.s-1, degree
07,2021-11-15T21:30:00,1500.0,42.79,6.0312,-0.058,-0.047,-0.005,47.0,48.0,48.0,12.6,1504.0,248.1,-0.7,-0.4,1473.188,13.11,0.074,231.0
07,2021-11-15T22:00:00,1500.0,42.79,6.0312,-0.075,-0.008,0.014,48.0,47.0,48.0,12.6,1504.0,270.0,-0.9,-0.3,1473.095,13.11,0.075,263.9
07,2021-11-15T22:30:00,1500.0,42.79,6.0312,-0.082,0.006,0.006,46.0,46.0,47.0,12.6,1504.0,274.1,-0.6,-0.3,1473.045,13.11,0.082,274.2
07,2021-11-15T23:00:00,1500.0,42.79,6.0312,-0.05,-0.05,-0.008,47.0,48.0,47.0,12.6,1504.0,232.8,-1.1,-0.3,1473.055,13.11,0.07,225.0
07,2021-11-15T23:30:00,1500.0,42.79,6.0312,-0.075,-0.016,-0.005,49.0,49.0,47.0,12.6,1504.0,264.5,-0.8,-0.2,1473.038,13.11,0.076,258.0
07,2021-11-16T00:00:00,1500.0,42.79,6.0312,-0.077,-0.026,-0.01,48.0,48.0,47.0,12.6,1504.0,242.4,-0.6,-0.3,1473.052,13.11,0.081,251.3
07,2021-11-16T00:30:00,1500.0,42.79,6.0312,-0.085,-0.004,-0.009,48.0,48.0,50.0,12.6,1504.0,264.8,-0.5,-0.2,1473.046,13.11,0.085,267.3
07,2021-11-16T01:00:00,1500.0,42.79,6.0312,-0.09,0.011,-0.007,48.0,48.0,48.0,12.6,1504.0,273.0,-1.3,-0.7,1473.126,13.11,0.09,277.0
07,2021-11-16T01:30:00,1500.0,42.79,6.0312,-0.064,-0.061,0.009,47.0,50.0,49.0,12.6,1504.0,222.6,-0.7,-0.3,1473.142,13.11,0.088,226.4
07,2021-11-16T02:00:00,1500.0,42.79,6.0312,-0.08,-0.05,-0.002,49.0,49.0,50.0,12.6,1504.0,233.9,0.0,-0.3,1473.142,13.11,0.094,238.0
07,2021-11-16T02:30:00,1500.0,42.79,6.0312,-0.083,-0.053,0.0,50.0,49.0,49.0,12.6,1504.0,231.1,-1.3,-0.3,1473.151,13.11,0.098,237.4
07,2021-11-16T03:00:00,1500.0,42.79,6.0312,-0.101,0.017,-0.008,49.0,50.0,49.0,12.6,1504.0,271.3,-0.8,-0.3,1473.159,13.11,0.102,279.6
07,2021-11-16T03:30:00,1500.0,42.79,6.0312,-0.103,-0.012,-0.004,50.0,50.0,50.0,12.6,1504.0,254.6,-0.3,-0.7,1473.212,13.11,0.103,263.4
07,2021-11-16T04:00:00,1500.0,42.79,6.0312,-0.095,0.019,0.004,50.0,49.0,49.0,12.6,1504.1,270.8,-1.1,-0.6,1473.286,13.12,0.096,281.3
07,2021-11-16T04:30:00,1500.0,42.79,6.0312,-0.084,-0.04,0.0,48.0,51.0,48.0,12.6,1504.0,235.2,-1.3,-0.4,1473.296,13.11,0.093,244.5
07,2021-11-16T05:00:00,1500.0,42.79,6.0312,-0.092,0.014,0.006,47.0,47.0,48.0,12.6,1504.0,269.2,-0.9,-0.9,1473.269,13.11,0.093,278.7
07,2021-11-16T05:30:00,1500.0,42.79,6.0312,-0.08,-0.036,0.011,46.0,47.0,46.0,12.6,1504.0,232.7,-1.0,0.0,1473.282,13.1,0.087,245.8
07,2021-11-16T06:00:00,1500.0,42.79,6.0312,-0.085,0.0,0.003,46.0,48.0,47.0,12.6,1504.0,258.2,-1.1,-0.5,1473.289,13.1,0.084,270.0
07,2021-11-16T06:30:00,1500.0,42.79,6.0312,-0.074,-0.032,0.002,46.0,47.0,47.0,12.6,1504.0,237.4,-1.0,-0.3,1473.325,13.1,0.08,246.6
07,2021-11-16T07:00:00,1500.0,42.79,6.0312,-0.084,0.01,-0.001,46.0,47.0,46.0,12.7,1504.0,269.2,-0.9,-0.1,1473.32,13.1,0.084,276.8
07,2021-11-16T07:30:00,1500.0,42.79,6.0312,-0.073,-0.046,-0.009,47.0,46.0,45.0,12.6,1504.0,233.6,-0.9,0.1,1473.333,13.1,0.086,237.8
07,2021-11-16T08:00:00,1500.0,42.79,6.0312,-0.075,-0.015,-0.005,46.0,47.0,47.0,12.6,1504.0,258.4,-1.1,-0.3,1473.315,13.11,0.076,258.7
07,2021-11-16T08:30:00,1500.0,42.79,6.0312,-0.067,-0.019,-0.011,46.0,48.0,48.0,12.6,1504.0,249.2,-1.2,-0.3,1473.281,13.11,0.069,254.2
07,2021-11-16T09:00:00,1500.0,42.79,6.0312,-0.072,-0.035,0.008,47.0,47.0,48.0,12.6,1504.0,240.6,-1.1,0.1,1473.221,13.11,0.08,244.1
07,2021-11-16T09:30:00,1500.0,42.79,6.0312,-0.078,-0.048,-0.002,48.0,49.0,48.0,12.6,1504.0,233.9,-1.2,-0.1,1473.249,13.11,0.091,238.4
07,2021-11-16T10:00:00,1500.0,42.79,6.0312,-0.089,-0.032,-0.011,48.0,48.0,48.0,12.6,1504.0,240.8,-1.5,-0.5,1473.235,13.11,0.094,250.2
07,2021-11-16T10:30:00,1500.0,42.79,6.0312,-0.088,-0.015,-0.012,49.0,50.0,49.0,12.6,1504.0,260.7,-0.8,-0.1,1473.217,13.11,0.089,260.3
07,2021-11-16T11:00:00,1500.0,42.79,6.0312,-0.105,-0.008,-0.008,51.0,52.0,52.0,12.6,1504.0,266.8,-0.6,0.0,1473.217,13.11,0.105,265.6
07,2021-11-16T11:30:00,1500.0,42.79,6.0312,-0.09,0.001,-0.006,52.0,52.0,52.0,12.6,1504.0,271.2,-1.1,-0.5,1473.196,13.11,0.089,270.6
07,2021-11-16T12:00:00,1500.0,42.79,6.0312,-0.092,-0.008,0.003,54.0,52.0,53.0,12.6,1504.0,273.4,-1.1,-0.4,1473.207,13.11,0.092,265.0
07,2021-11-16T12:30:00,1500.0,42.79,6.0312,-0.083,0.016,0.018,52.0,53.0,53.0,12.6,1504.0,280.8,-0.9,-0.4,1473.152,13.11,0.084,280.9
07,2021-11-16T13:00:00,1500.0,42.79,6.0312,-0.091,-0.019,0.019,52.0,54.0,53.0,12.6,1504.0,258.6,-0.9,-0.1,1473.19,13.11,0.092,258.2
07,2021-11-16T13:30:00,1500.0,42.79,6.0312,-0.09,-0.023,-0.003,51.0,52.0,51.0,12.7,1504.0,254.1,-0.7,-0.4,1473.198,13.11,0.092,255.7
07,2021-11-16T14:00:00,1500.0,42.79,6.0312,-0.079,-0.04,0.012,52.0,51.0,50.0,12.7,1504.0,243.6,-0.9,0.1,1473.154,13.1,0.088,243.1
07,2021-11-16T14:30:00,1500.0,42.79,6.0312,-0.078,-0.04,0.01,51.0,50.0,52.0,12.6,1504.0,238.7,-0.9,-0.4,1473.222,13.11,0.087,242.9
07,2021-11-16T15:00:00,1500.0,42.79,6.0312,-0.089,0.019,-0.006,50.0,52.0,52.0,12.6,1504.0,277.9,-1.2,0.2,1473.178,13.1,0.091,282.1
07,2021-11-16T15:30:00,1500.0,42.79,6.0312,-0.083,-0.042,-0.015,51.0,51.0,52.0,12.6,1504.0,238.4,-0.9,-0.1,1473.22,13.11,0.093,243.2
07,2021-11-16T16:00:00,1500.0,42.79,6.0312,-0.086,-0.037,0.003,50.0,51.0,50.0,12.6,1504.0,241.7,-0.8,-0.2,1473.182,13.11,0.093,246.7
07,2021-11-16T16:30:00,1500.0,42.79,6.0312,-0.094,-0.022,-0.003,52.0,53.0,53.0,12.6,1504.0,257.8,-0.7,-0.3,1473.213,13.11,0.096,256.8
07,2021-11-16T17:00:00,1500.0,42.79,6.0312,-0.095,0.002,0.0,55.0,57.0,55.0,12.6,1504.0,264.5,-0.6,-0.3,1473.203,13.11,0.095,271.2
07,2021-11-16T17:30:00,1500.0,42.79,6.0312,-0.087,-0.005,-0.017,53.0,53.0,55.0,12.6,1504.0,259.0,-0.6,-0.5,1473.186,13.11,0.087,266.7
07,2021-11-16T18:00:00,1500.0,42.79,6.0312,-0.093,-0.018,0.003,54.0,55.0,53.0,12.6,1504.0,251.8,-0.2,-0.2,1473.222,13.11,0.094,259.0
07,2021-11-16T18:30:00,1500.0,42.79,6.0312,-0.083,-0.012,0.011,53.0,53.0,54.0,12.6,1504.0,250.5,-0.2,-0.2,1473.2,13.11,0.083,261.8
07,2021-11-16T19:00:00,1500.0,42.79,6.0312,-0.076,-0.028,0.006,51.0,51.0,53.0,12.6,1504.1,235.1,-0.2,-0.3,1473.138,13.12,0.08,249.8
07,2021-11-16T19:30:00,1500.0,42.79,6.0312,-0.084,-0.015,-0.009,52.0,51.0,51.0,12.6,1504.1,245.8,-0.9,-0.6,1473.102,13.12,0.085,259.9
07,2021-11-16T20:00:00,1500.0,42.79,6.0312,-0.067,-0.025,0.009,51.0,51.0,52.0,12.6,1504.0,238.3,0.0,0.1,1473.121,13.11,0.071,249.5
07,2021-11-16T20:30:00,1500.0,42.79,6.0312,-0.081,-0.015,-0.008,51.0,50.0,52.0,12.6,1504.0,248.5,-1.2,-0.5,1473.094,13.11,0.082,259.5
07,2021-11-16T21:00:00,1500.0,42.79,6.0312,-0.077,-0.016,0.002,51.0,51.0,52.0,12.6,1504.0,252.8,-0.8,-0.2,1473.052,13.11,0.078,258.3
